2016-05-18 00:01:27 r, 17.94m,0000000006Hz,0000077850c,0000000.169s, 029.0C,00002195
2016-05-18 00:11:27 r, 17.95m,0000000006Hz,0000078894c,0000000.171s, 028.6C,00002195
2016-05-18 00:21:27 r, 17.94m,0000000005Hz,0000078670c,0000000.171s, 028.3C,00002195
2016-05-18 00:31:27 r, 17.94m,0000000006Hz,0000078814c,0000000.171s, 028.3C,00002195
2016-05-18 00:41:27 r, 17.96m,0000000005Hz,0000079740c,0000000.173s, 028.3C,00002195
2016-05-18 00:51:29 r, 17.96m,0000000006Hz,0000079752c,0000000.173s, 028.3C,00002195
2016-05-18 01:01:27 r, 18.02m,0000000005Hz,0000084310c,0000000.183s, 028.3C,00002195
2016-05-18 01:11:27 r, 18.03m,0000000006Hz,0000084639c,0000000.184s, 028.0C,00002195
2016-05-18 01:21:28 r, 18.02m,0000000006Hz,0000083782c,0000000.182s, 028.0C,00002195
2016-05-18 01:31:27 r, 17.98m,0000000005Hz,0000080660c,0000000.175s, 028.0C,00002195
2016-05-18 01:41:27 r, 18.05m,0000000005Hz,0000086329c,0000000.187s, 028.0C,00002195
2016-05-18 01:51:28 r, 18.06m,0000000005Hz,0000087426c,0000000.190s, 027.7C,00002195
2016-05-18 02:01:27 r, 18.09m,0000000005Hz,0000089521c,0000000.194s, 027.7C,00002195
2016-05-18 02:11:27 r, 18.12m,0000000005Hz,0000091247c,0000000.198s, 028.0C,00002195
2016-05-18 02:21:28 r, 18.13m,0000000004Hz,0000093105c,0000000.202s, 028.0C,00002195
2016-05-18 02:31:27 r, 18.15m,0000000004Hz,0000094388c,0000000.205s, 028.0C,00002195
2016-05-18 02:41:27 r, 18.16m,0000000005Hz,0000095057c,0000000.206s, 028.0C,00002195
2016-05-18 02:51:29 r, 18.16m,0000000005Hz,0000095041c,0000000.206s, 028.0C,00002195
2016-05-18 03:01:27 r, 18.16m,0000000004Hz,0000095147c,0000000.206s, 028.0C,00002195
2016-05-18 03:11:27 r, 18.17m,0000000005Hz,0000095981c,0000000.208s, 028.0C,00002195
2016-05-18 03:21:28 r, 18.18m,0000000005Hz,0000096831c,0000000.210s, 028.0C,00002195
2016-05-18 03:31:27 r, 18.20m,0000000004Hz,0000098631c,0000000.214s, 028.0C,00002195
2016-05-18 03:41:27 r, 18.20m,0000000004Hz,0000099057c,0000000.215s, 028.0C,00002195
2016-05-18 03:51:28 r, 18.21m,0000000004Hz,0000099889c,0000000.217s, 027.7C,00002195
2016-05-18 04:01:27 r, 18.16m,0000000005Hz,0000095137c,0000000.206s, 027.7C,00002195
2016-05-18 04:11:27 r, 17.99m,0000000006Hz,0000081557c,0000000.177s, 027.7C,00002195
2016-05-18 04:21:28 r, 17.61m,0000000008Hz,0000057761c,0000000.125s, 027.7C,00002195
2016-05-18 04:31:28 r, 16.96m,0000000015Hz,0000031687c,0000000.069s, 027.7C,00002195
2016-05-18 04:41:27 r, 15.95m,0000000037Hz,0000012540c,0000000.027s, 027.3C,00002195
2016-05-18 04:51:29 r, 14.51m,0000000140Hz,0000000000c,0000000.000s, 027.3C,00002195
2016-05-18 05:01:27 r, 12.86m,0000000639Hz,0000000000c,0000000.000s, 027.0C,00002195
2016-05-18 05:11:27 r, 11.25m,0000002806Hz,0000000000c,0000000.000s, 027.0C,00002195
2016-05-18 05:21:27 r, 09.75m,0000011147Hz,0000000000c,0000000.000s, 027.0C,00002195
2016-05-18 05:31:27 r, 08.50m,0000035366Hz,0000000000c,0000000.000s, 026.7C,00002195
2016-05-18 05:41:27 r, 07.56m,0000084541Hz,0000000000c,0000000.000s, 027.0C,00002195
2016-05-18 05:51:28 r, 06.86m,0000161467Hz,0000000000c,0000000.000s, 026.7C,00002195
2016-05-18 06:01:28 r, 06.34m,0000258737Hz,0000000000c,0000000.000s, 026.7C,00002195
2016-05-18 06:11:29 r, 05.96m,0000368506Hz,0000000000c,0000000.000s, 027.0C,00002195
2016-05-18 06:21:27 r, 00.00m,0000486126Hz,0000000000c,0000000.000s, 026.7C,00002195
2016-05-18 06:31:29 r, 00.00m,0000563679Hz,0000000000c,0000000.000s, 027.0C,00002195
2016-05-18 06:41:27 r, 00.00m,0000563598Hz,0000000000c,0000000.000s, 027.3C,00002195
2016-05-18 06:51:29 r, 00.00m,0000563704Hz,0000000000c,0000000.000s, 027.3C,00002195
2016-05-18 07:01:27 r, 00.00m,0000563655Hz,0000000000c,0000000.000s, 027.3C,00002195
2016-05-18 07:11:27 r, 00.00m,0000563758Hz,0000000000c,0000000.000s, 028.0C,00002195
2016-05-18 07:21:29 r, 00.00m,0000563797Hz,0000000000c,0000000.000s, 028.3C,00002195
2016-05-18 07:31:27 r, 00.00m,0000563757Hz,0000000000c,0000000.000s, 028.3C,00002195
2016-05-18 07:41:27 r, 00.00m,0000563827Hz,0000000000c,0000000.000s, 028.6C,00002195
2016-05-18 07:51:29 r, 00.00m,0000563920Hz,0000000000c,0000000.000s, 029.0C,00002195
2016-05-18 08:01:27 r, 00.00m,0000563810Hz,0000000000c,0000000.000s, 029.3C,00002195
2016-05-18 08:11:27 r, 00.00m,0000563976Hz,0000000000c,0000000.000s, 029.6C,00002195
2016-05-18 08:21:28 r, 00.00m,0000563995Hz,0000000000c,0000000.000s, 029.6C,00002195
2016-05-18 08:31:28 r, 00.00m,0000564026Hz,0000000000c,0000000.000s, 030.6C,00002195
2016-05-18 08:41:27 r, 00.00m,0000564043Hz,0000000000c,0000000.000s, 030.9C,00002195
2016-05-18 08:51:27 r, 00.00m,0000564117Hz,0000000000c,0000000.000s, 031.2C,00002195
2016-05-18 09:01:29 r, 00.00m,0000564201Hz,0000000000c,0000000.000s, 032.2C,00002195
2016-05-18 09:11:27 r, 00.00m,0000564665Hz,0000000000c,0000000.000s, 035.1C,00002195
2016-05-18 09:21:27 r, 00.00m,0000564858Hz,0000000000c,0000000.000s, 038.0C,00002195
2016-05-18 09:31:27 r, 00.00m,0000565067Hz,0000000000c,0000000.000s, 039.6C,00002195
2016-05-18 09:41:27 r, 00.00m,0000565142Hz,0000000000c,0000000.000s, 041.2C,00002195
2016-05-18 09:51:27 r, 00.00m,0000565266Hz,0000000000c,0000000.000s, 042.8C,00002195
2016-05-18 10:01:27 r, 00.00m,0000565329Hz,0000000000c,0000000.000s, 043.8C,00002195
2016-05-18 10:11:27 r, 00.00m,0000565343Hz,0000000000c,0000000.000s, 044.8C,00002195
2016-05-18 10:21:27 r, 00.00m,0000565466Hz,0000000000c,0000000.000s, 045.7C,00002195
2016-05-18 10:31:27 r, 00.00m,0000565507Hz,0000000000c,0000000.000s, 046.4C,00002195
2016-05-18 10:41:27 r, 00.00m,0000565496Hz,0000000000c,0000000.000s, 046.4C,00002195
2016-05-18 10:51:29 r, 00.00m,0000565513Hz,0000000000c,0000000.000s, 046.4C,00002195
2016-05-18 11:01:28 r, 00.00m,0000565436Hz,0000000000c,0000000.000s, 046.7C,00002195
2016-05-18 11:11:27 r, 00.00m,0000565475Hz,0000000000c,0000000.000s, 047.0C,00002195
2016-05-18 11:21:30 r, 00.00m,0000565549Hz,0000000000c,0000000.000s, 047.3C,00002195
2016-05-18 11:31:28 r, 00.00m,0000565616Hz,0000000000c,0000000.000s, 048.0C,00002195
2016-05-18 11:41:27 r, 00.00m,0000565590Hz,0000000000c,0000000.000s, 048.6C,00002195
2016-05-18 11:51:27 r, 00.00m,0000565692Hz,0000000000c,0000000.000s, 049.3C,00002195
2016-05-18 12:01:28 r, 00.00m,0000565720Hz,0000000000c,0000000.000s, 050.2C,00002195
2016-05-18 12:11:27 r, 00.00m,0000565776Hz,0000000000c,0000000.000s, 050.2C,00002195
2016-05-18 12:21:27 r, 00.00m,0000565787Hz,0000000000c,0000000.000s, 050.6C,00002195
2016-05-18 12:31:29 r, 00.00m,0000565763Hz,0000000000c,0000000.000s, 050.2C,00002195
2016-05-18 12:41:27 r, 00.00m,0000565748Hz,0000000000c,0000000.000s, 050.9C,00002195
2016-05-18 12:51:29 r, 00.00m,0000565886Hz,0000000000c,0000000.000s, 051.5C,00002195
2016-05-18 13:01:28 r, 00.00m,0000565788Hz,0000000000c,0000000.000s, 051.8C,00002195
2016-05-18 13:11:27 r, 00.00m,0000565987Hz,0000000000c,0000000.000s, 052.5C,00002195
2016-05-18 13:21:27 r, 00.00m,0000565855Hz,0000000000c,0000000.000s, 053.1C,00002195
2016-05-18 13:31:27 r, 00.00m,0000565937Hz,0000000000c,0000000.000s, 053.8C,00002195
2016-05-18 13:41:27 r, 00.00m,0000565842Hz,0000000000c,0000000.000s, 053.8C,00002195
2016-05-18 13:51:30 r, 00.00m,0000565937Hz,0000000000c,0000000.000s, 054.1C,00002195
2016-05-18 14:01:28 r, 00.00m,0000565887Hz,0000000000c,0000000.000s, 053.8C,00002195
2016-05-18 14:11:27 r, 00.00m,0000565940Hz,0000000000c,0000000.000s, 054.1C,00002195
2016-05-18 14:21:29 r, 00.00m,0000565921Hz,0000000000c,0000000.000s, 054.4C,00002195
2016-05-18 14:31:28 r, 00.00m,0000565885Hz,0000000000c,0000000.000s, 053.5C,00002195
2016-05-18 14:41:27 r, 00.00m,0000565809Hz,0000000000c,0000000.000s, 052.8C,00002195
2016-05-18 14:51:27 r, 00.00m,0000565865Hz,0000000000c,0000000.000s, 052.5C,00002195
2016-05-18 15:01:30 r, 00.00m,0000565856Hz,0000000000c,0000000.000s, 052.8C,00002195
2016-05-18 15:11:27 r, 00.00m,0000565835Hz,0000000000c,0000000.000s, 052.5C,00002195
2016-05-18 15:21:27 r, 00.00m,0000565831Hz,0000000000c,0000000.000s, 052.5C,00002195
2016-05-18 15:31:28 r, 00.00m,0000565868Hz,0000000000c,0000000.000s, 052.5C,00002195
2016-05-18 15:41:27 r, 00.00m,0000565786Hz,0000000000c,0000000.000s, 052.5C,00002195
2016-05-18 15:51:27 r, 00.00m,0000565728Hz,0000000000c,0000000.000s, 051.5C,00002195
2016-05-18 16:01:29 r, 00.00m,0000565569Hz,0000000000c,0000000.000s, 049.9C,00002195
2016-05-18 16:11:27 r, 00.00m,0000565490Hz,0000000000c,0000000.000s, 049.3C,00002195
2016-05-18 16:21:27 r, 00.00m,0000565478Hz,0000000000c,0000000.000s, 048.9C,00002195
2016-05-18 16:31:28 r, 00.00m,0000565494Hz,0000000000c,0000000.000s, 048.9C,00002195
2016-05-18 16:41:27 r, 00.00m,0000565507Hz,0000000000c,0000000.000s, 048.6C,00002195
2016-05-18 16:51:27 r, 00.00m,0000565487Hz,0000000000c,0000000.000s, 048.6C,00002195
2016-05-18 17:01:27 r, 00.00m,0000565620Hz,0000000000c,0000000.000s, 049.6C,00002195
2016-05-18 17:11:27 r, 00.00m,0000565552Hz,0000000000c,0000000.000s, 049.9C,00002195
2016-05-18 17:21:27 r, 00.00m,0000565525Hz,0000000000c,0000000.000s, 048.6C,00002195
2016-05-18 17:31:27 r, 00.00m,0000565430Hz,0000000000c,0000000.000s, 048.3C,00002195
2016-05-18 17:41:27 r, 00.00m,0000565302Hz,0000000000c,0000000.000s, 047.0C,00002195
2016-05-18 17:51:27 r, 00.00m,0000565329Hz,0000000000c,0000000.000s, 046.7C,00002195
2016-05-18 18:01:27 r, 00.00m,0000565247Hz,0000000000c,0000000.000s, 046.4C,00002195
2016-05-18 18:11:27 r, 00.00m,0000565216Hz,0000000000c,0000000.000s, 045.4C,00002195
2016-05-18 18:21:30 r, 00.00m,0000565236Hz,0000000000c,0000000.000s, 045.1C,00002195
2016-05-18 18:31:27 r, 00.00m,0000565183Hz,0000000000c,0000000.000s, 045.4C,00002195
2016-05-18 18:41:27 r, 00.00m,0000565227Hz,0000000000c,0000000.000s, 045.4C,00002195
2016-05-18 18:51:27 r, 00.00m,0000565206Hz,0000000000c,0000000.000s, 045.4C,00002195
2016-05-18 19:01:30 r, 00.00m,0000565242Hz,0000000000c,0000000.000s, 044.8C,00002195
2016-05-18 19:11:27 r, 00.00m,0000565124Hz,0000000000c,0000000.000s, 044.1C,00002195
2016-05-18 19:21:27 r, 00.00m,0000565081Hz,0000000000c,0000000.000s, 043.5C,00002195
2016-05-18 19:31:27 r, 00.00m,0000565059Hz,0000000000c,0000000.000s, 043.1C,00002195
2016-05-18 19:41:27 r, 00.00m,0000564984Hz,0000000000c,0000000.000s, 042.8C,00002195
2016-05-18 19:51:27 r, 00.00m,0000564936Hz,0000000000c,0000000.000s, 042.2C,00002195
2016-05-18 20:01:29 r, 00.00m,0000564758Hz,0000000000c,0000000.000s, 040.9C,00002195
2016-05-18 20:11:27 r, 00.00m,0000564715Hz,0000000000c,0000000.000s, 040.2C,00002195
2016-05-18 20:21:27 r, 00.00m,0000564643Hz,0000000000c,0000000.000s, 039.6C,00002195
2016-05-18 20:31:28 r, 00.00m,0000513086Hz,0000000000c,0000000.000s, 038.6C,00002195
2016-05-18 20:41:27 r, 05.96m,0000367420Hz,0000000000c,0000000.000s, 038.0C,00002195
2016-05-18 20:51:29 r, 06.42m,0000241231Hz,0000000000c,0000000.000s, 037.3C,00002195
2016-05-18 21:01:27 r, 07.01m,0000139670Hz,0000000000c,0000000.000s, 036.7C,00002195
2016-05-18 21:11:28 r, 07.77m,0000069330Hz,0000000000c,0000000.000s, 036.0C,00002195
2016-05-18 21:21:27 r, 08.75m,0000028149Hz,0000000000c,0000000.000s, 035.7C,00002195
2016-05-18 21:31:28 r, 10.06m,0000008420Hz,0000000000c,0000000.000s, 035.1C,00002195
2016-05-18 21:41:29 r, 11.59m,0000002076Hz,0000000000c,0000000.000s, 034.4C,00002195
2016-05-18 21:51:27 r, 13.16m,0000000482Hz,0000000000c,0000000.000s, 034.1C,00002195
2016-05-18 22:01:30 r, 14.66m,0000000121Hz,0000003818c,0000000.008s, 033.8C,00002195
2016-05-18 22:11:28 r, 15.68m,0000000047Hz,0000009771c,0000000.021s, 033.1C,00002195
2016-05-18 22:21:27 r, 16.39m,0000000025Hz,0000018897c,0000000.041s, 032.8C,00002195
2016-05-18 22:31:29 r, 16.90m,0000000016Hz,0000030058c,0000000.065s, 032.8C,00002195
2016-05-18 22:41:28 r, 17.27m,0000000011Hz,0000042219c,0000000.092s, 032.5C,00002195
2016-05-18 22:51:27 r, 17.46m,0000000010Hz,0000049929c,0000000.108s, 032.5C,00002195
2016-05-18 23:01:27 r, 17.59m,0000000008Hz,0000056552c,0000000.123s, 032.2C,00002195
2016-05-18 23:11:30 r, 17.65m,0000000008Hz,0000059492c,0000000.129s, 032.2C,00002195
2016-05-18 23:21:27 r, 17.66m,0000000007Hz,0000059966c,0000000.130s, 032.2C,00002195
2016-05-18 23:31:27 r, 17.71m,0000000007Hz,0000062528c,0000000.136s, 031.9C,00002195
2016-05-18 23:41:27 r, 17.74m,0000000008Hz,0000064338c,0000000.140s, 031.9C,00002195
2016-05-18 23:51:27 r, 17.74m,0000000007Hz,0000064749c,0000000.141s, 031.9C,00002195
